Theta_e
306 305 304 303 303 304 303 303 304 304 304 304 305 305 306 307 307 307 307 306 306 306 306 307 308 309 310 311 313 316 318 322 327 327 328 329 328 329 330 331 331 330 331
304 303 302 301 302 303 303 304 304 305 305 304 304 305 306 306 307 307 308 307 306 307 307 307 309 310 311 312 312 315 319 321 324 328 328 328 328 327 329 330 331 331 330
301 300 300 301 303 303 304 305 305 305 305 304 305 306 306 308 309 310 311 311 310 309 309 308 309 311 312 313 313 317 319 321 324 326 328 327 328 327 329 329 328 328 326
301 300 300 302 302 302 304 304 304 304 304 305 305 305 306 309 311 313 315 313 313 311 310 309 310 311 313 313 315 318 321 323 323 325 326 326 327 327 327 327 325 323 321
299 299 301 302 302 303 304 304 304 304 305 305 305 305 307 309 311 313 316 315 312 311 311 311 312 313 313 313 315 318 321 322 323 322 324 324 325 326 325 323 322 319 315
300 301 301 302 302 303 303 303 304 304 305 305 305 306 306 308 309 313 314 313 313 313 313 314 315 315 314 313 314 316 318 320 324 324 324 325 324 325 323 318 316 313 313
300 301 301 301 302 303 303 304 304 305 305 306 306 306 306 307 309 311 313 314 315 315 315 314 315 316 317 318 317 318 320 321 322 323 324 323 322 318 318 314 314 313 313
300 300 300 301 301 303 304 304 304 305 306 306 306 306 306 307 308 310 311 311 312 312 313 313 314 314 315 316 318 319 320 320 321 320 318 318 316 315 314 314 312 310 311
300 298 299 301 302 301 302 302 304 305 306 306 306 306 307 307 308 309 309 309 309 310 310 311 311 312 312 313 314 314 313 312 311 313 312 311 310 309 308 309 310 312 311
300 301 302 301 302 301 302 302 301 303 305 305 305 305 306 307 308 308 309 308 308 308 308 308 308 308 308 308 308 309 308 307 308 307 307 306 306 308 310 311 311 311 311
301 301 301 302 301 301 301 301 301 301 302 303 303 303 304 305 307 308 308 309 308 308 308 308 307 307 307 307 307 307 307 307 307 307 307 307 307 308 308 308 308 310 310
302 302 301 301 300 300 300 299 299 300 300 301 302 302 301 304 304 306 307 308 308 308 307 306 307 308 307 307 308 309 309 308 308 308 308 307 307 307 307 306 306 308 307
301 301 301 300 300 299 299 299 298 298 298 299 300 302 302 301 302 305 306 306 307 307 307 307 307 307 307 307 306 307 308 308 308 307 307 307 307 305 305 306 307 306 305
299 301 301 300 300 300 298 297 296 295 296 296 298 299 301 300 299 300 304 306 306 307 308 307 307 307 306 306 306 306 306 305 306 306 306 305 305 306 305 305 305 305 306
300 300 300 299 299 299 299 297 294 293 293 294 294 297 297 299 300 300 300 302 304 304 306 305 304 304 304 304 304 304 303 304 304 305 305 305 305 305 304 303 303 303 304
299 300 299 299 298 298 298 298 296 294 295 295 295 295 296 296 297 298 299 301 302 303 303 302 302 302 302 303 303 303 303 302 303 303 303 303 302 302 302 302 301 302 302
300 299 299 298 298 297 296 295 296 296 296 296 296 296 297 298 298 297 299 301 302 302 301 301 300 300 300 300 300 301 300 303 303 303 301 302 302 300 300 300 300 301 300
300 299 299 298 297 297 296 295 295 297 297 298 297 297 297 297 297 298 300 301 301 301 299 300 300 301 301 301 301 302 302 302 303 303 302 301 301 299 299 299 300 301 301
298 298 299 298 297 296 296 295 294 296 297 298 298 298 298 299 298 298 299 300 299 300 300 301 301 301 301 302 302 301 301 301 301 301 301 300 300 299 298 299 300 302 302
299 297 298 298 297 297 296 294 294 295 296 297 297 297 298 299 298 298 300 300 300 300 300 300 300 300 300 300 301 300 300 300 300 299 299 299 299 298 298 298 299 301 302
299 299 298 298 297 296 295 294 293 294 296 297 297 296 297 298 297 298 298 299 299 299 300 300 299 299 299 299 299 299 298 298 298 298 298 297 297 297 298 299 300 301 302
299 298 298 297 296 295 294 293 293 294 295 296 297 297 297 298 297 298 298 298 299 299 299 299 299 298 298 298 297 297 297 297 297 296 296 296 296 297 298 299 300 302 302
298 298 298 297 296 295 294 293 292 293 294 294 295 296 297 298 297 297 298 298 299 299 298 298 297 297 297 297 296 296 296 295 295 295 295 295 295 296 298 299 300 302 302
298 298 298 297 295 295 294 293 293 292 293 294 294 295 297 298 297 298 298 298 299 298 297 295 295 295 295 295 295 295 295 295 295 295 295 295 295 296 298 300 301 302 302
298 298 297 297 296 295 294 293 293 293 295 296 295 295 297 297 298 298 298 297 296 295 294 295 295 295 294 295 294 294 294 294 295 295 295 295 296 298 299 301 302 302 302
297 297 297 296 295 294 294 293 293 295 296 295 295 295 297 297 298 298 297 296 295 294 295 295 295 295 294 294 293 293 294 294 295 295 296 296 298 299 300 302 302 303 303
Wind_Speed
25 25 23 22 23 24 26 27 32 32 32 32 32 33 33 31 29 27 27 27 27 26 24 25 24 22 22 26 22 26 31 26 23 19 15 14 15 16 17 19 20 17 21
22 22 21 22 23 24 26 29 30 31 31 29 30 31 30 29 28 27 26 25 24 24 22 20 22 20 22 21 22 23 29 27 25 19 15 18 15 14 14 15 19 22 18
21 20 21 22 24 26 27 27 28 29 29 29 28 29 28 27 27 25 25 24 21 20 20 20 20 19 19 19 18 19 21 26 25 19 16 19 16 14 18 19 20 21 19
21 21 21 22 23 25 25 25 27 28 28 28 27 27 25 24 22 25 22 15 13 13 15 16 18 18 17 18 17 18 17 22 24 22 19 21 20 18 20 23 24 23 22
21 20 21 20 21 22 24 25 27 26 25 25 26 25 22 21 22 21 14 3 7 5 6 9 11 13 15 17 16 15 11 17 19 24 26 22 21 19 21 25 26 24 19
20 19 18 19 19 23 24 24 25 25 25 25 25 25 24 23 22 15 13 10 6 3 3 5 8 10 11 15 16 15 17 17 13 16 21 22 22 22 23 24 23 18 13
17 16 18 19 22 23 24 23 24 26 26 25 26 26 28 26 21 13 10 9 8 6 5 3 3 4 6 11 14 16 16 19 18 17 17 18 17 18 21 15 13 11 7
16 20 21 23 20 23 25 24 22 27 29 29 28 28 30 26 22 18 17 18 17 18 15 10 6 6 7 9 10 11 7 6 5 6 4 5 6 10 10 10 8 6 5
20 21 20 19 18 23 28 29 27 24 27 31 32 31 31 31 25 20 22 26 28 30 30 28 26 24 21 21 23 26 25 25 24 20 20 18 15 16 14 10 11 10 8
17 21 19 16 16 20 22 19 26 28 25 27 31 34 36 31 29 30 27 29 32 33 33 32 31 28 26 26 27 26 29 26 25 24 23 20 17 13 13 7 3 5 8
17 17 16 16 17 19 19 19 21 20 23 27 29 30 31 35 30 26 26 27 28 29 29 29 28 27 27 27 27 24 24 23 20 18 18 15 14 11 8 6 6 4 3
15 15 16 17 18 18 20 21 21 21 21 21 25 26 29 24 27 29 26 24 22 24 26 24 23 20 20 21 21 19 19 15 13 12 12 10 8 6 6 5 3 4 3
15 15 15 17 16 18 20 21 22 22 21 20 20 20 21 23 20 22 22 24 24 24 22 20 19 20 19 18 16 17 15 13 11 11 9 7 5 5 6 7 5 5 3
17 16 16 16 17 17 17 20 21 23 22 21 18 20 19 21 26 24 16 14 14 14 14 17 16 16 15 14 14 13 12 11 9 8 6 6 6 6 6 6 4 3 1
16 17 17 17 17 17 15 19 20 26 26 24 22 15 20 19 23 22 21 16 13 12 12 11 13 13 14 14 14 13 12 11 11 10 8 7 7 6 6 7 5 4 2
16 16 18 17 17 16 15 14 19 23 25 25 22 22 16 16 13 15 17 17 16 14 12 14 16 15 15 14 13 13 12 12 11 10 9 8 8 8 7 7 7 5 3
16 15 16 17 16 17 16 16 14 16 20 24 24 23 22 21 17 15 18 20 15 15 18 16 15 15 14 13 13 12 12 12 11 10 10 9 8 9 9 7 6 4 3
15 16 14 16 16 16 16 15 15 15 15 16 20 23 25 27 21 20 17 14 16 19 19 18 18 17 16 15 14 14 13 12 12 11 10 8 7 8 8 7 4 4 4
14 14 13 14 16 16 15 15 15 15 16 17 18 18 23 22 22 24 23 23 21 21 21 20 19 18 17 16 15 14 14 13 12 11 9 7 7 6 6 5 4 4 5
12 16 15 14 15 15 15 15 15 16 16 17 20 20 18 18 20 22 24 24 23 22 21 20 20 19 18 17 16 16 14 13 12 11 9 7 6 5 4 3 2 2 4
11 12 15 14 14 14 14 15 15 16 16 17 17 21 22 17 20 22 23 23 21 21 20 20 20 20 20 19 18 17 16 14 12 11 9 8 6 5 2 1 3 4 5
9 11 12 12 13 14 14 14 15 15 16 16 16 17 21 17 20 20 21 21 21 20 20 20 20 21 21 20 19 18 16 15 13 11 9 8 5 2 2 5 7 7 6
9 9 10 12 13 14 13 14 15 14 15 15 15 16 17 17 17 19 20 20 19 19 20 22 23 24 22 20 18 17 17 16 13 10 8 6 2 1 6 9 8 9 8
8 9 11 11 13 13 13 14 14 16 16 15 15 16 17 16 15 17 19 20 20 21 22 24 29 28 24 21 19 18 17 16 12 8 5 3 0 5 10 10 11 10 10
8 9 10 11 12 12 13 13 14 15 15 15 15 15 15 15 16 19 21 21 20 19 21 23 26 29 24 21 19 17 16 14 11 7 3 3 6 13 13 12 12 12 12
8 9 10 11 11 12 13 13 14 15 15 15 15 15 14 14 18 21 22 21 20 19 22 22 27 27 23 22 19 17 14 12 8 7 6 10 14 15 14 13 13 14 14
Wind_Direction
325 324 324 323 321 321 326 323 326 325 324 322 321 316 313 309 308 301 290 284 277 273 261 254 259 256 249 245 243 241 244 238 248 246 244 240 253 255 241 235 233 237 226
327 325 325 324 328 330 328 329 332 329 329 326 324 322 320 316 312 305 297 286 275 269 265 257 252 254 252 250 248 236 237 243 245 245 242 251 256 257 242 235 229 218 222
330 330 330 332 335 337 334 339 336 337 335 332 331 327 324 324 319 312 299 289 280 270 260 250 246 248 251 250 249 236 231 236 239 241 243 248 254 246 234 226 225 218 217
338 337 337 341 344 339 343 346 347 343 341 340 339 335 333 332 334 337 316 280 286 277 256 247 245 240 249 249 236 234 230 232 237 241 244 251 253 248 238 232 215 212 211
343 345 348 352 353 353 359 1 356 353 354 353 352 352 350 352 353 351 3 343 302 293 258 252 248 244 251 242 238 238 243 228 234 245 237 243 253 239 237 218 215 209 210
354 354 2 9 6 9 6 9 4 9 11 10 11 10 8 8 360 8 28 44 45 37 300 284 269 263 248 235 236 242 237 234 246 243 250 253 251 246 224 210 204 195 193
3 16 20 17 16 12 12 16 18 20 19 21 26 26 28 20 11 24 38 45 43 20 358 331 281 262 233 223 222 228 229 235 247 239 235 236 226 219 215 196 192 211 207
36 29 24 21 9 24 27 26 27 28 31 32 33 36 39 33 33 44 62 64 63 61 60 62 73 98 116 132 157 167 151 146 164 189 182 167 177 153 164 165 162 127 109
35 20 8 3 11 37 34 31 32 30 33 36 35 40 44 46 42 49 70 76 75 74 71 69 73 80 90 97 101 100 97 92 89 94 100 104 105 101 95 98 111 141 146
12 5 9 30 14 16 11 15 30 25 32 35 35 38 43 47 51 54 64 76 77 75 75 75 72 74 79 81 81 84 84 84 82 86 86 89 89 104 117 106 146 170 167
7 13 16 17 9 10 12 16 16 18 31 35 30 33 40 42 46 50 55 62 69 73 73 72 75 77 78 78 79 76 80 80 84 83 86 85 81 69 66 67 123 121 169
9 15 17 18 17 15 17 19 16 15 14 17 25 25 28 36 35 42 52 57 61 67 66 67 68 68 72 75 78 80 82 78 75 76 75 72 66 58 42 45 75 107 116
15 16 11 10 12 18 19 19 21 19 18 17 23 28 28 29 37 40 31 49 55 60 69 69 66 59 56 59 68 72 63 63 63 65 66 60 52 36 45 43 38 25 351
19 14 11 8 14 13 21 22 18 21 22 19 24 24 26 25 34 39 34 36 39 40 38 47 49 51 56 57 53 50 51 55 58 54 50 37 32 29 8 14 10 357 192
18 19 18 16 16 19 11 17 29 26 27 27 30 23 24 25 28 24 27 32 38 40 42 44 42 41 42 43 43 45 44 44 42 32 28 18 17 14 9 5 11 9 49
17 18 14 17 20 23 28 16 10 18 28 32 36 40 31 26 21 27 36 49 62 57 57 55 49 45 42 38 35 32 31 31 28 21 18 15 12 15 4 3 6 20 38
14 15 18 21 23 24 27 29 30 13 13 15 30 38 38 35 38 49 53 43 61 55 56 49 42 36 31 27 24 20 16 14 14 15 13 14 18 11 11 7 9 22 77
22 18 23 23 24 25 25 27 29 30 28 25 14 29 36 30 37 58 58 54 47 53 48 43 36 33 29 24 19 14 11 9 7 5 4 5 3 4 14 10 15 79 90
30 25 26 22 20 25 25 28 30 30 31 27 24 27 29 27 25 50 54 53 47 44 40 34 31 29 26 22 17 12 6 1 360 358 357 355 348 354 8 10 30 83 94
25 27 31 25 22 24 26 29 30 30 30 29 25 26 33 24 34 38 44 44 42 39 34 31 29 26 21 16 12 8 4 358 356 354 351 346 341 343 345 7 35 110 102
27 19 28 26 25 26 26 28 30 33 31 29 27 32 48 32 38 39 37 35 33 30 25 22 19 16 12 9 6 4 2 359 354 350 348 345 340 322 296 152 127 133 109
26 23 26 26 29 27 33 30 30 31 31 30 29 21 37 29 33 35 32 29 27 24 21 19 15 11 6 2 359 358 358 356 353 347 346 340 331 313 181 152 142 137 129
29 32 28 32 31 28 28 29 33 32 29 29 29 29 29 27 22 23 24 23 23 24 21 16 11 6 0 358 357 356 355 354 351 345 342 339 344 197 153 147 144 137 129
41 39 37 33 35 32 34 29 28 23 31 28 29 30 29 25 22 24 22 21 23 21 18 16 11 1 356 356 357 357 354 352 350 347 345 347 8 145 141 140 135 139 134
46 41 40 39 38 34 30 29 28 28 27 28 29 32 30 25 26 25 23 22 18 12 12 10 357 360 3 2 359 357 355 354 359 5 29 79 119 135 134 130 134 136 134
50 55 46 43 39 37 35 30 30 28 28 28 34 34 31 24 28 26 23 21 16 13 10 1 360 2 5 2 360 359 1 7 24 51 83 109 127 131 129 128 128 128 130